Time,TemperatureF,DewpointF,PressureIn,WindDirection,WindDirectionDegrees,WindSpeedMPH,WindSpeedGustMPH,Humidity,HourlyPrecipIn,Conditions,Clouds,dailyrainin,SoftwareType,DateUTC
2013-01-07 00:00:00,33.3,-0.5,29.65,NNW,342,3.1,3.1,23,0.00,,---,0.00,VWS V13.01,2013-01-07 05:00:00,
2013-01-07 00:01:00,33.1,-0.7,29.65,North,357,3.6,4.5,23,0.00,,---,0.00,VWS V13.01,2013-01-07 05:01:00,
2013-01-07 00:04:00,33.1,-0.7,29.65,NNW,327,0.0,5.6,23,0.00,,---,0.00,VWS V13.01,2013-01-07 05:04:00,
2013-01-07 00:09:00,32.9,-0.8,29.65,NNW,346,0.0,5.6,23,0.00,,---,0.00,VWS V13.01,2013-01-07 05:09:00,
2013-01-07 00:14:00,32.9,-0.8,29.65,West,279,2.7,5.6,23,0.00,,---,0.00,VWS V13.01,2013-01-07 05:14:00,
2013-01-07 00:19:00,32.7,-1.0,29.65,West,280,0.0,0.0,23,0.00,,---,0.00,VWS V13.01,2013-01-07 05:19:00,
2013-01-07 00:25:00,32.5,-1.1,29.65,West,280,0.0,0.0,23,0.00,,---,0.00,VWS V13.01,2013-01-07 05:25:00,
2013-01-07 00:30:00,32.2,-1.4,29.65,West,280,0.0,0.0,23,0.00,,---,0.00,VWS V13.01,2013-01-07 05:30:00,
2013-01-07 00:35:00,32.0,-1.6,29.65,West,279,0.0,6.0,23,0.00,,---,0.00,VWS V13.01,2013-01-07 05:35:00,
2013-01-07 00:40:00,32.0,-1.6,29.65,West,279,0.0,0.0,23,0.00,,---,0.00,VWS V13.01,2013-01-07 05:40:00,
2013-01-07 00:45:00,31.8,-1.8,29.65,West,279,3.1,4.0,23,0.00,,---,0.00,VWS V13.01,2013-01-07 05:45:00,
2013-01-07 00:50:00,32.0,-1.6,29.65,West,272,3.6,5.1,23,0.00,,---,0.00,VWS V13.01,2013-01-07 05:50:00,
2013-01-07 00:55:00,32.2,-1.4,29.65,West,261,3.6,5.1,23,0.00,,---,0.00,VWS V13.01,2013-01-07 05:55:00,
2013-01-07 01:01:00,32.4,-1.3,29.65,West,262,0.0,0.0,23,0.00,,---,0.00,VWS V13.01,2013-01-07 06:01:00,
2013-01-07 01:06:00,32.2,-1.4,29.65,West,265,3.6,3.6,23,0.00,,---,0.00,VWS V13.01,2013-01-07 06:06:00,
2013-01-07 01:11:00,32.0,-1.6,29.68,West,265,3.1,3.6,23,0.00,,---,0.00,VWS V13.01,2013-01-07 06:11:00,
2013-01-07 01:16:00,32.0,-1.6,29.68,West,271,5.1,5.1,23,0.00,,---,0.00,VWS V13.01,2013-01-07 06:16:00,
2013-01-07 01:21:00,32.2,-1.4,29.68,West,266,4.0,5.1,23,0.00,,---,0.00,VWS V13.01,2013-01-07 06:21:00,
2013-01-07 01:26:00,32.2,-1.4,29.68,WSW,257,4.5,6.5,23,0.00,,---,0.00,VWS V13.01,2013-01-07 06:26:00,
2013-01-07 01:31:00,32.2,-1.4,29.68,West,265,4.0,6.5,23,0.00,,---,0.00,VWS V13.01,2013-01-07 06:31:00,
2013-01-07 01:36:00,32.2,-1.4,29.68,West,264,4.0,6.5,23,0.00,,---,0.00,VWS V13.01,2013-01-07 06:36:00,
2013-01-07 01:42:00,32.0,-1.6,29.68,West,273,4.0,4.7,23,0.00,,---,0.00,VWS V13.01,2013-01-07 06:42:00,
2013-01-07 01:47:00,32.0,-1.6,29.68,West,274,3.6,5.1,23,0.00,,---,0.00,VWS V13.01,2013-01-07 06:47:00,
2013-01-07 01:52:00,32.2,-1.4,29.68,West,267,4.7,5.1,23,0.00,,---,0.00,VWS V13.01,2013-01-07 06:52:00,
2013-01-07 01:57:00,32.2,-1.4,29.68,West,267,0.0,5.1,23,0.00,,---,0.00,VWS V13.01,2013-01-07 06:57:00,
2013-01-07 02:02:00,32.0,-1.6,29.68,West,278,4.0,5.1,23,0.00,,---,0.00,VWS V13.01,2013-01-07 07:02:00,
2013-01-07 02:07:00,31.8,-1.8,29.68,WNW,295,4.0,5.1,23,0.00,,---,0.00,VWS V13.01,2013-01-07 07:07:00,
2013-01-07 02:12:00,31.8,0.0,29.68,West,274,3.6,5.1,25,0.00,,---,0.00,VWS V13.01,2013-01-07 07:12:00,
2013-01-07 02:17:00,31.6,-0.1,29.68,WNW,284,0.0,5.1,25,0.00,,---,0.00,VWS V13.01,2013-01-07 07:17:00,
2013-01-07 02:23:00,31.6,-0.1,29.68,WNW,284,3.1,6.5,25,0.00,,---,0.00,VWS V13.01,2013-01-07 07:23:00,
2013-01-07 02:28:00,31.5,-0.3,29.68,West,275,3.6,6.5,25,0.00,,---,0.00,VWS V13.01,2013-01-07 07:28:00,
2013-01-07 02:33:00,31.3,-0.4,29.68,West,275,0.0,6.5,25,0.00,,---,0.00,VWS V13.01,2013-01-07 07:33:00,
2013-01-07 02:38:00,31.1,-0.6,29.68,West,274,3.1,6.5,25,0.00,,---,0.00,VWS V13.01,2013-01-07 07:38:00,
2013-01-07 02:43:00,31.1,-0.6,29.68,West,276,3.6,4.0,25,0.00,,---,0.00,VWS V13.01,2013-01-07 07:43:00,
2013-01-07 02:48:00,31.3,2.0,29.68,NW,304,4.0,5.1,28,0.00,,---,0.00,VWS V13.01,2013-01-07 07:48:00,
2013-01-07 02:53:00,31.6,-0.1,29.68,WNW,291,0.0,5.1,25,0.00,,---,0.00,VWS V13.01,2013-01-07 07:53:00,
2013-01-07 02:59:00,31.5,2.1,29.68,WNW,302,3.1,5.6,28,0.00,,---,0.00,VWS V13.01,2013-01-07 07:59:00,
2013-01-07 03:04:00,31.6,2.3,29.68,NW,304,0.0,4.5,28,0.00,,---,0.00,VWS V13.01,2013-01-07 08:04:00,
2013-01-07 03:09:00,31.6,-0.1,29.68,WNW,299,3.1,4.5,25,0.00,,---,0.00,VWS V13.01,2013-01-07 08:09:00,
2013-01-07 03:14:00,31.5,-0.3,29.68,WNW,299,0.0,4.5,25,0.00,,---,0.00,VWS V13.01,2013-01-07 08:14:00,
2013-01-07 03:19:00,31.3,2.0,29.68,WNW,299,0.0,4.5,28,0.00,,---,0.00,VWS V13.01,2013-01-07 08:19:00,
2013-01-07 03:24:00,31.1,1.8,29.71,WNW,299,0.0,2.7,28,0.00,,---,0.00,VWS V13.01,2013-01-07 08:24:00,
2013-01-07 03:29:00,30.9,1.7,29.71,West,281,0.0,4.5,28,0.00,,---,0.00,VWS V13.01,2013-01-07 08:29:00,
2013-01-07 03:34:00,30.9,1.7,29.71,West,281,0.0,4.5,28,0.00,,---,0.00,VWS V13.01,2013-01-07 08:34:00,
2013-01-07 03:40:00,30.2,1.0,29.71,West,281,0.0,0.0,28,0.00,,---,0.00,VWS V13.01,2013-01-07 08:40:00,
2013-01-07 03:45:00,29.7,0.6,29.71,West,281,0.0,0.0,28,0.00,,---,0.00,VWS V13.01,2013-01-07 08:45:00,
2013-01-07 03:50:00,29.5,1.9,29.71,West,281,0.0,0.0,30,0.00,,---,0.00,VWS V13.01,2013-01-07 08:50:00,
2013-01-07 03:55:00,29.7,2.7,29.71,West,281,0.0,4.5,31,0.00,,---,0.00,VWS V13.01,2013-01-07 08:55:00,
2013-01-07 04:00:00,30.2,3.2,29.71,West,281,3.6,4.0,31,0.00,,---,0.00,VWS V13.01,2013-01-07 09:00:00,
2013-01-07 04:06:00,30.4,3.4,29.71,West,271,3.1,6.5,31,0.00,,---,0.00,VWS V13.01,2013-01-07 09:06:00,
2013-01-07 04:11:00,30.6,3.5,29.71,WNW,283,4.5,6.5,31,0.00,,---,0.00,VWS V13.01,2013-01-07 09:11:00,
2013-01-07 04:16:00,31.1,4.0,29.71,NW,305,5.1,6.5,31,0.00,,---,0.00,VWS V13.01,2013-01-07 09:16:00,
2013-01-07 04:21:00,31.5,3.6,29.71,WNW,299,3.1,4.7,30,0.00,,---,0.00,VWS V13.01,2013-01-07 09:21:00,
2013-01-07 04:26:00,31.5,3.6,29.71,WNW,298,3.6,6.9,30,0.00,,---,0.00,VWS V13.01,2013-01-07 09:26:00,
2013-01-07 04:31:00,31.6,3.8,29.71,NW,307,3.1,6.9,30,0.00,,---,0.00,VWS V13.01,2013-01-07 09:31:00,
2013-01-07 04:36:00,32.0,4.1,29.71,West,262,4.5,6.9,30,0.00,,---,0.00,VWS V13.01,2013-01-07 09:36:00,
2013-01-07 04:42:00,32.0,4.1,29.71,NW,305,2.7,5.6,30,0.00,,---,0.00,VWS V13.01,2013-01-07 09:42:00,
2013-01-07 04:47:00,32.0,4.1,29.71,NW,307,0.0,5.6,30,0.00,,---,0.00,VWS V13.01,2013-01-07 09:47:00,
2013-01-07 04:52:00,32.0,4.1,29.71,West,276,0.0,5.6,30,0.00,,---,0.00,VWS V13.01,2013-01-07 09:52:00,
2013-01-07 04:57:00,32.2,4.2,29.74,WNW,287,4.0,6.5,30,0.00,,---,0.00,VWS V13.01,2013-01-07 09:57:00,
2013-01-07 05:02:00,32.2,4.2,29.74,NW,321,2.7,4.7,30,0.00,,---,0.00,VWS V13.01,2013-01-07 10:02:00,
2013-01-07 05:07:00,32.2,4.2,29.74,NW,321,0.0,4.7,30,0.00,,---,0.00,VWS V13.01,2013-01-07 10:07:00,
2013-01-07 05:12:00,31.8,3.9,29.74,West,278,0.0,4.7,30,0.00,,---,0.00,VWS V13.01,2013-01-07 10:12:00,
2013-01-07 05:17:00,31.6,3.8,29.74,West,278,0.0,4.7,30,0.00,,---,0.00,VWS V13.01,2013-01-07 10:17:00,
2013-01-07 05:23:00,31.8,3.9,29.74,WNW,287,2.7,3.6,30,0.00,,---,0.00,VWS V13.01,2013-01-07 10:23:00,
2013-01-07 05:28:00,32.2,4.2,29.74,WNW,288,0.0,3.6,30,0.00,,---,0.00,VWS V13.01,2013-01-07 10:28:00,
2013-01-07 05:33:00,32.5,4.6,29.74,WNW,288,0.0,3.6,30,0.00,,---,0.00,VWS V13.01,2013-01-07 10:33:00,
2013-01-07 05:38:00,32.5,4.6,29.74,WNW,288,0.0,3.6,30,0.00,,---,0.00,VWS V13.01,2013-01-07 10:38:00,
2013-01-07 05:43:00,32.2,4.2,29.74,WNW,288,0.0,0.0,30,0.00,,---,0.00,VWS V13.01,2013-01-07 10:43:00,
2013-01-07 05:48:00,31.8,3.9,29.74,WNW,287,0.0,0.0,30,0.00,,---,0.00,VWS V13.01,2013-01-07 10:48:00,
2013-01-07 05:54:00,31.5,3.6,29.77,WNW,287,0.0,0.0,30,0.00,,---,0.00,VWS V13.01,2013-01-07 10:54:00,
2013-01-07 05:59:00,31.1,3.3,29.77,WNW,288,0.0,0.0,30,0.00,,---,0.00,VWS V13.01,2013-01-07 10:59:00,
2013-01-07 06:04:00,30.7,3.0,29.77,WNW,288,0.0,0.0,30,0.00,,---,0.00,VWS V13.01,2013-01-07 11:04:00,
2013-01-07 06:09:00,30.6,2.8,29.77,WNW,288,0.0,0.0,30,0.00,,---,0.00,VWS V13.01,2013-01-07 11:09:00,
2013-01-07 06:14:00,30.6,3.5,29.77,WNW,287,0.0,4.5,31,0.00,,---,0.00,VWS V13.01,2013-01-07 11:14:00,
2013-01-07 06:19:00,30.7,3.7,29.77,NW,315,2.7,5.6,31,0.00,,---,0.00,VWS V13.01,2013-01-07 11:19:00,
2013-01-07 06:24:00,31.1,4.0,29.77,NNW,337,0.0,4.5,31,0.00,,---,0.00,VWS V13.01,2013-01-07 11:24:00,
2013-01-07 06:30:00,31.3,4.2,29.77,NNW,330,0.0,4.5,31,0.00,,---,0.00,VWS V13.01,2013-01-07 11:30:00,
2013-01-07 06:35:00,31.6,4.5,29.77,NW,322,2.7,4.5,31,0.00,,---,0.00,VWS V13.01,2013-01-07 11:35:00,
2013-01-07 06:40:00,32.0,4.1,29.77,NW,306,2.7,4.0,30,0.00,,---,0.00,VWS V13.01,2013-01-07 11:40:00,
2013-01-07 06:45:00,32.4,4.4,29.77,NW,305,0.0,4.0,30,0.00,,---,0.00,VWS V13.01,2013-01-07 11:45:00,
2013-01-07 06:50:00,32.7,4.7,29.77,NW,306,0.0,4.0,30,0.00,,---,0.00,VWS V13.01,2013-01-07 11:50:00,
2013-01-07 06:55:00,32.9,4.9,29.80,NW,304,0.0,4.0,30,0.00,,---,0.00,VWS V13.01,2013-01-07 11:55:00,
2013-01-07 07:00:00,33.1,3.5,29.80,NW,304,0.0,0.0,28,0.00,,---,0.00,VWS V13.01,2013-01-07 12:00:00,
2013-01-07 07:05:00,33.1,3.5,29.80,NW,304,0.0,0.0,28,0.00,,---,0.00,VWS V13.01,2013-01-07 12:05:00,
2013-01-07 07:11:00,33.3,3.7,29.80,NW,304,0.0,0.0,28,0.00,,---,0.00,VWS V13.01,2013-01-07 12:11:00,
2013-01-07 07:16:00,33.3,3.7,29.80,WNW,283,0.0,5.6,28,0.00,,---,0.00,VWS V13.01,2013-01-07 12:16:00,
2013-01-07 07:21:00,33.6,1.6,29.80,WNW,283,0.0,0.0,25,0.00,,---,0.00,VWS V13.01,2013-01-07 12:21:00,
2013-01-07 07:26:00,33.3,1.2,29.80,WNW,283,0.0,0.0,25,0.00,,---,0.00,VWS V13.01,2013-01-07 12:26:00,
2013-01-07 07:31:00,32.9,0.9,29.80,WNW,284,3.1,3.6,25,0.00,,---,0.00,VWS V13.01,2013-01-07 12:31:00,
2013-01-07 07:36:00,32.5,3.1,29.80,NW,305,3.1,4.5,28,0.00,,---,0.00,VWS V13.01,2013-01-07 12:36:00,
2013-01-07 07:42:00,32.5,3.1,29.83,NW,305,3.6,3.6,28,0.00,,---,0.00,VWS V13.01,2013-01-07 12:42:00,
2013-01-07 07:47:00,32.4,2.9,29.83,NW,305,0.0,4.0,28,0.00,,---,0.00,VWS V13.01,2013-01-07 12:47:00,
2013-01-07 07:52:00,32.5,3.1,29.83,WNW,294,0.0,4.0,28,0.00,,---,0.00,VWS V13.01,2013-01-07 12:52:00,
2013-01-07 07:57:00,32.5,3.1,29.83,WNW,294,0.0,4.0,28,0.00,,---,0.00,VWS V13.01,2013-01-07 12:57:00,
2013-01-07 08:02:00,32.5,3.1,29.83,WNW,294,0.0,2.7,28,0.00,,---,0.00,VWS V13.01,2013-01-07 13:02:00,
2013-01-07 08:07:00,32.5,3.1,29.83,WNW,294,3.1,4.0,28,0.00,,---,0.00,VWS V13.01,2013-01-07 13:07:00,
2013-01-07 08:12:00,32.9,3.4,29.86,NW,322,0.0,6.0,28,0.00,,---,0.00,VWS V13.01,2013-01-07 13:12:00,
2013-01-07 08:17:00,33.3,3.7,29.86,NW,317,4.0,6.0,28,0.00,,---,0.00,VWS V13.01,2013-01-07 13:17:00,
2013-01-07 08:22:00,33.6,4.0,29.86,North,4,4.0,4.0,28,0.00,,---,0.00,VWS V13.01,2013-01-07 13:22:00,
2013-01-07 08:28:00,33.8,1.7,29.86,NW,325,4.7,4.7,25,0.00,,---,0.00,VWS V13.01,2013-01-07 13:28:00,
2013-01-07 08:33:00,34.5,2.3,29.86,NW,308,3.1,4.7,25,0.00,,---,0.00,VWS V13.01,2013-01-07 13:33:00,
2013-01-07 08:38:00,34.9,2.6,29.86,WNW,290,3.1,4.7,25,0.00,,---,0.00,VWS V13.01,2013-01-07 13:38:00,
2013-01-07 08:43:00,35.2,0.2,29.86,NW,308,2.7,4.5,22,0.00,,---,0.00,VWS V13.01,2013-01-07 13:43:00,
2013-01-07 08:48:00,35.4,0.4,29.86,NNW,333,5.1,5.1,22,0.00,,---,0.00,VWS V13.01,2013-01-07 13:48:00,
2013-01-07 08:53:00,36.0,0.8,29.86,WNW,285,3.1,5.1,22,0.00,,---,0.00,VWS V13.01,2013-01-07 13:53:00,
2013-01-07 08:58:00,36.7,1.4,29.86,NW,324,0.0,5.1,22,0.00,,---,0.00,VWS V13.01,2013-01-07 13:58:00,
2013-01-07 09:03:00,37.0,1.7,29.86,NW,306,5.1,7.4,22,0.00,,---,0.00,VWS V13.01,2013-01-07 14:03:00,
2013-01-07 09:09:00,37.6,1.2,29.89,NNW,328,0.0,7.4,21,0.00,,---,0.00,VWS V13.01,2013-01-07 14:09:00,
2013-01-07 09:14:00,37.9,-0.6,29.89,NNW,334,5.6,8.7,19,0.00,,---,0.00,VWS V13.01,2013-01-07 14:14:00,
2013-01-07 09:19:00,39.9,-0.1,29.89,NNW,345,3.1,8.7,18,0.00,,---,0.00,VWS V13.01,2013-01-07 14:19:00,
2013-01-07 09:24:00,42.3,1.8,29.89,NW,304,3.1,5.6,18,0.00,,---,0.00,VWS V13.01,2013-01-07 14:24:00,
2013-01-07 09:29:00,43.5,2.8,29.89,NE,37,0.0,5.6,18,0.00,,---,0.00,VWS V13.01,2013-01-07 14:29:00,
2013-01-07 09:34:00,42.8,2.2,29.89,WNW,303,0.0,6.0,18,0.00,,---,0.00,VWS V13.01,2013-01-07 14:34:00,
2013-01-07 09:39:00,40.8,0.6,29.89,North,11,4.0,6.0,18,0.00,,---,0.00,VWS V13.01,2013-01-07 14:39:00,
2013-01-07 09:44:00,39.9,-0.1,29.89,North,350,4.7,6.9,18,0.00,,---,0.00,VWS V13.01,2013-01-07 14:44:00,
2013-01-07 09:49:00,40.5,0.3,29.89,NW,318,0.0,7.8,18,0.00,,---,0.00,VWS V13.01,2013-01-07 14:49:00,
2013-01-07 09:54:00,40.6,0.5,29.89,East,92,2.7,7.8,18,0.00,,---,0.00,VWS V13.01,2013-01-07 14:54:00,
2013-01-07 10:00:00,41.4,1.0,29.89,NNW,331,3.6,3.6,18,0.00,,---,0.00,VWS V13.01,2013-01-07 15:00:00,
2013-01-07 10:05:00,41.9,1.5,29.89,North,353,4.7,7.4,18,0.00,,---,0.00,VWS V13.01,2013-01-07 15:05:00,
2013-01-07 10:10:00,41.9,1.5,29.92,North,353,3.1,7.8,18,0.00,,---,0.00,VWS V13.01,2013-01-07 15:10:00,
2013-01-07 10:15:00,40.6,0.5,29.92,NNW,346,5.6,7.8,18,0.00,,---,0.00,VWS V13.01,2013-01-07 15:15:00,
2013-01-07 10:20:00,40.6,0.5,29.92,North,8,4.5,6.9,18,0.00,,---,0.00,VWS V13.01,2013-01-07 15:20:00,
2013-01-07 10:25:00,42.1,1.6,29.92,NNW,345,4.0,6.9,18,0.00,,---,0.00,VWS V13.01,2013-01-07 15:25:00,
2013-01-07 10:30:00,43.0,2.4,29.92,North,357,4.0,8.7,18,0.00,,---,0.00,VWS V13.01,2013-01-07 15:30:00,
2013-01-07 10:36:00,43.9,3.1,29.92,NNW,344,5.6,9.4,18,0.00,,---,0.00,VWS V13.01,2013-01-07 15:36:00,
2013-01-07 10:41:00,45.3,3.1,29.92,WNW,302,8.9,8.9,17,0.00,,---,0.00,VWS V13.01,2013-01-07 15:41:00,
2013-01-07 10:46:00,44.8,2.6,29.92,NW,319,7.8,8.9,17,0.00,,---,0.00,VWS V13.01,2013-01-07 15:46:00,
2013-01-07 10:51:00,43.9,3.1,29.92,NNW,340,3.6,10.3,18,0.00,,---,0.00,VWS V13.01,2013-01-07 15:51:00,
2013-01-07 10:56:00,45.7,3.4,29.92,WNW,283,4.0,10.3,17,0.00,,---,0.00,VWS V13.01,2013-01-07 15:56:00,
2013-01-07 11:01:00,47.5,4.8,29.92,NE,35,2.7,5.6,17,0.00,,---,0.00,VWS V13.01,2013-01-07 16:01:00,
2013-01-07 11:06:00,46.2,3.8,29.92,East,95,4.5,6.9,17,0.00,,---,0.00,VWS V13.01,2013-01-07 16:06:00,
2013-01-07 11:11:00,46.9,4.4,29.92,North,350,3.1,7.8,17,0.00,,---,0.00,VWS V13.01,2013-01-07 16:11:00,
2013-01-07 11:17:00,48.7,4.6,29.92,North,349,5.6,7.8,16,0.00,,---,0.00,VWS V13.01,2013-01-07 16:17:00,
2013-01-07 11:22:00,48.6,4.4,29.92,North,357,5.6,6.5,16,0.00,,---,0.00,VWS V13.01,2013-01-07 16:22:00,
2013-01-07 11:27:00,47.5,4.8,29.92,East,86,3.1,7.8,17,0.00,,---,0.00,VWS V13.01,2013-01-07 16:27:00,
2013-01-07 11:32:00,47.1,4.6,29.92,NNW,336,8.7,9.4,17,0.00,,---,0.00,VWS V13.01,2013-01-07 16:32:00,
2013-01-07 11:37:00,47.1,4.6,29.92,North,353,8.9,10.7,17,0.00,,---,0.00,VWS V13.01,2013-01-07 16:37:00,
2013-01-07 11:42:00,46.2,3.8,29.92,NW,308,7.4,7.8,17,0.00,,---,0.00,VWS V13.01,2013-01-07 16:42:00,
2013-01-07 11:47:00,47.5,4.8,29.92,NNE,14,3.1,8.3,17,0.00,,---,0.00,VWS V13.01,2013-01-07 16:47:00,
2013-01-07 11:52:00,47.3,4.7,29.92,NNW,332,0.0,8.3,17,0.00,,---,0.00,VWS V13.01,2013-01-07 16:52:00,
2013-01-07 11:58:00,45.7,3.4,29.92,NNW,344,3.1,8.3,17,0.00,,---,0.00,VWS V13.01,2013-01-07 16:58:00,
2013-01-07 12:03:00,46.8,4.3,29.92,ENE,65,2.7,5.1,17,0.00,,---,0.00,VWS V13.01,2013-01-07 17:03:00,
2013-01-07 12:08:00,47.1,4.6,29.92,North,357,2.7,8.7,17,0.00,,---,0.00,VWS V13.01,2013-01-07 17:08:00,
2013-01-07 12:13:00,45.7,3.4,29.92,NW,306,4.0,8.7,17,0.00,,---,0.00,VWS V13.01,2013-01-07 17:13:00,
2013-01-07 12:18:00,45.0,2.8,29.92,NNW,341,4.7,10.7,17,0.00,,---,0.00,VWS V13.01,2013-01-07 17:18:00,
2013-01-07 12:23:00,43.9,3.1,29.95,WNW,293,6.5,7.8,18,0.00,,---,0.00,VWS V13.01,2013-01-07 17:23:00,
2013-01-07 12:28:00,45.3,3.1,29.95,NW,304,3.6,8.9,17,0.00,,---,0.00,VWS V13.01,2013-01-07 17:28:00,
2013-01-07 12:33:00,46.9,4.4,29.95,WNW,293,0.0,8.9,17,0.00,,---,0.00,VWS V13.01,2013-01-07 17:33:00,
2013-01-07 12:38:00,48.4,4.3,29.95,NNW,333,3.6,8.9,16,0.00,,---,0.00,VWS V13.01,2013-01-07 17:38:00,
2013-01-07 12:44:00,47.3,4.7,29.95,WNW,296,6.0,9.4,17,0.00,,---,0.00,VWS V13.01,2013-01-07 17:44:00,
2013-01-07 12:49:00,46.4,4.0,29.95,NW,314,4.0,9.8,17,0.00,,---,0.00,VWS V13.01,2013-01-07 17:49:00,
2013-01-07 12:54:00,45.7,3.4,29.95,NW,307,8.9,11.2,17,0.00,,---,0.00,VWS V13.01,2013-01-07 17:54:00,
2013-01-07 12:59:00,44.8,2.6,29.95,NNW,339,4.0,11.2,17,0.00,,---,0.00,VWS V13.01,2013-01-07 17:59:00,
2013-01-07 13:04:00,46.2,3.8,29.95,North,353,3.1,11.2,17,0.00,,---,0.00,VWS V13.01,2013-01-07 18:04:00,
2013-01-07 13:09:00,45.9,3.5,29.95,North,349,4.7,11.2,17,0.00,,---,0.00,VWS V13.01,2013-01-07 18:09:00,
2013-01-07 13:14:00,46.0,3.7,29.95,ENE,71,5.1,11.2,17,0.00,,---,0.00,VWS V13.01,2013-01-07 18:14:00,
2013-01-07 13:19:00,46.4,4.0,29.95,NNW,342,2.7,5.6,17,0.00,,---,0.00,VWS V13.01,2013-01-07 18:19:00,
2013-01-07 13:25:00,46.9,4.4,29.95,WNW,289,5.6,7.4,17,0.00,,---,0.00,VWS V13.01,2013-01-07 18:25:00,
2013-01-07 13:30:00,45.7,3.4,29.95,NNE,28,3.1,7.4,17,0.00,,---,0.00,VWS V13.01,2013-01-07 18:30:00,
2013-01-07 13:35:00,44.2,3.4,29.95,NW,306,0.0,7.4,18,0.00,,---,0.00,VWS V13.01,2013-01-07 18:35:00,
2013-01-07 13:40:00,43.2,2.5,29.95,NNW,329,3.1,6.5,18,0.00,,---,0.00,VWS V13.01,2013-01-07 18:40:00,
2013-01-07 13:45:00,43.0,2.4,29.95,North,349,6.5,7.8,18,0.00,,---,0.00,VWS V13.01,2013-01-07 18:45:00,
2013-01-07 13:50:00,41.7,1.4,29.95,NW,308,6.5,7.8,18,0.00,,---,0.00,VWS V13.01,2013-01-07 18:50:00,
2013-01-07 13:55:00,41.5,1.2,29.95,NNW,342,0.0,7.8,18,0.00,,---,0.00,VWS V13.01,2013-01-07 18:55:00,
2013-01-07 14:00:00,43.2,2.5,29.95,NW,321,3.6,5.6,18,0.00,,---,0.00,VWS V13.01,2013-01-07 19:00:00,
2013-01-07 14:05:00,43.2,2.5,29.95,NW,317,8.7,8.7,18,0.00,,---,0.00,VWS V13.01,2013-01-07 19:05:00,
2013-01-07 14:11:00,43.9,3.1,29.95,NW,323,0.0,8.7,18,0.00,,---,0.00,VWS V13.01,2013-01-07 19:11:00,
2013-01-07 14:16:00,43.3,2.7,29.95,North,353,0.0,8.7,18,0.00,,---,0.00,VWS V13.01,2013-01-07 19:16:00,
2013-01-07 14:21:00,42.3,1.8,29.95,WNW,291,6.0,6.0,18,0.00,,---,0.00,VWS V13.01,2013-01-07 19:21:00,
2013-01-07 14:26:00,41.0,0.8,29.95,North,353,5.1,7.4,18,0.00,,---,0.00,VWS V13.01,2013-01-07 19:26:00,
2013-01-07 14:31:00,40.5,0.3,29.95,North,353,4.7,7.4,18,0.00,,---,0.00,VWS V13.01,2013-01-07 19:31:00,
2013-01-07 14:36:00,40.3,0.2,29.95,NNW,341,3.6,7.4,18,0.00,,---,0.00,VWS V13.01,2013-01-07 19:36:00,
2013-01-07 14:42:00,40.3,0.2,29.98,WNW,292,4.7,8.3,18,0.00,,---,0.00,VWS V13.01,2013-01-07 19:42:00,
2013-01-07 14:47:00,40.6,0.5,29.98,NNW,332,4.0,8.3,18,0.00,,---,0.00,VWS V13.01,2013-01-07 19:47:00,
2013-01-07 14:52:00,40.6,0.5,29.98,North,357,0.0,8.3,18,0.00,,---,0.00,VWS V13.01,2013-01-07 19:52:00,
2013-01-07 14:57:00,39.9,-0.1,29.98,North,357,0.0,9.4,18,0.00,,---,0.00,VWS V13.01,2013-01-07 19:57:00,
2013-01-07 15:02:00,39.4,-0.6,29.98,North,357,0.0,4.5,18,0.00,,---,0.00,VWS V13.01,2013-01-07 20:02:00,
2013-01-07 15:07:00,39.0,0.3,29.98,North,357,0.0,4.5,19,0.00,,---,0.00,VWS V13.01,2013-01-07 20:07:00,
2013-01-07 15:12:00,38.8,0.1,29.98,NW,324,3.6,6.0,19,0.00,,---,0.00,VWS V13.01,2013-01-07 20:12:00,
2013-01-07 15:17:00,38.8,0.1,29.98,NW,306,4.7,6.9,19,0.00,,---,0.00,VWS V13.01,2013-01-07 20:17:00,
2013-01-07 15:19:00,38.8,0.1,29.98,WNW,296,3.6,6.9,19,0.00,,---,0.00,VWS V13.01,2013-01-07 20:19:00,
2013-01-07 15:24:00,38.7,0.0,29.98,NW,317,3.6,4.7,19,0.00,,---,0.00,VWS V13.01,2013-01-07 20:24:00,
2013-01-07 15:29:00,38.5,-0.2,29.98,NNW,341,3.6,6.0,19,0.00,,---,0.00,VWS V13.01,2013-01-07 20:29:00,
2013-01-07 15:35:00,38.5,-0.2,29.98,North,357,3.1,6.0,19,0.00,,---,0.00,VWS V13.01,2013-01-07 20:35:00,
2013-01-07 15:40:00,38.3,-0.3,29.98,NNW,339,4.7,4.7,19,0.00,,---,0.00,VWS V13.01,2013-01-07 20:40:00,
2013-01-07 15:45:00,38.1,-0.5,29.98,North,353,3.6,4.7,19,0.00,,---,0.00,VWS V13.01,2013-01-07 20:45:00,
2013-01-07 15:50:00,37.6,-0.9,29.98,North,353,3.1,4.7,19,0.00,,---,0.00,VWS V13.01,2013-01-07 20:50:00,
2013-01-07 15:55:00,37.2,-1.2,29.98,NNW,340,4.5,5.1,19,0.00,,---,0.00,VWS V13.01,2013-01-07 20:55:00,
2013-01-07 16:00:00,37.0,-1.4,29.98,NNW,340,0.0,0.0,19,0.00,,---,0.00,VWS V13.01,2013-01-07 21:00:00,
2013-01-07 16:06:00,36.9,-1.5,29.98,NW,319,3.6,4.5,19,0.00,,---,0.00,VWS V13.01,2013-01-07 21:06:00,
2013-01-07 16:11:00,36.5,-1.8,30.01,NW,319,0.0,4.5,19,0.00,,---,0.00,VWS V13.01,2013-01-07 21:11:00,
2013-01-07 16:16:00,36.0,-2.3,30.01,NW,319,0.0,4.5,19,0.00,,---,0.00,VWS V13.01,2013-01-07 21:16:00,
2013-01-07 16:21:00,35.4,-1.6,30.01,NW,319,0.0,0.0,20,0.00,,---,0.00,VWS V13.01,2013-01-07 21:21:00,
2013-01-07 16:26:00,35.1,-2.0,30.01,NW,319,0.0,0.0,20,0.00,,---,0.00,VWS V13.01,2013-01-07 21:26:00,
2013-01-07 16:31:00,34.7,-2.3,30.01,NW,319,0.0,0.0,20,0.00,,---,0.00,VWS V13.01,2013-01-07 21:31:00,
2013-01-07 16:36:00,34.0,-2.9,30.01,NW,319,0.0,0.0,20,0.00,,---,0.00,VWS V13.01,2013-01-07 21:36:00,
2013-01-07 16:42:00,33.6,-3.2,30.01,NW,319,0.0,0.0,20,0.00,,---,0.00,VWS V13.01,2013-01-07 21:42:00,
2013-01-07 16:47:00,33.3,-3.5,30.01,NW,319,0.0,0.0,20,0.00,,---,0.00,VWS V13.01,2013-01-07 21:47:00,
2013-01-07 16:52:00,32.9,-3.8,30.01,NW,319,0.0,0.0,20,0.00,,---,0.00,VWS V13.01,2013-01-07 21:52:00,
2013-01-07 16:57:00,32.5,-4.1,30.01,NW,319,0.0,0.0,20,0.00,,---,0.00,VWS V13.01,2013-01-07 21:57:00,
2013-01-07 17:02:00,32.0,-4.5,30.01,NW,319,0.0,0.0,20,0.00,,---,0.00,VWS V13.01,2013-01-07 22:02:00,
2013-01-07 17:08:00,31.5,-5.0,30.01,NW,319,0.0,0.0,20,0.00,,---,0.00,VWS V13.01,2013-01-07 22:08:00,
2013-01-07 17:13:00,31.1,-5.3,30.01,NW,319,0.0,0.0,20,0.00,,---,0.00,VWS V13.01,2013-01-07 22:13:00,
2013-01-07 17:18:00,30.9,-5.4,30.01,NW,319,0.0,0.0,20,0.00,,---,0.00,VWS V13.01,2013-01-07 22:18:00,
2013-01-07 17:23:00,30.7,-5.6,30.01,NW,319,0.0,0.0,20,0.00,,---,0.00,VWS V13.01,2013-01-07 22:23:00,
2013-01-07 17:28:00,30.6,-7.9,30.01,NW,319,0.0,0.0,18,0.00,,---,0.00,VWS V13.01,2013-01-07 22:28:00,
2013-01-07 17:33:00,30.2,-8.2,30.01,NW,319,0.0,0.0,18,0.00,,---,0.00,VWS V13.01,2013-01-07 22:33:00,
2013-01-07 17:38:00,30.2,-8.2,30.01,NW,319,0.0,0.0,18,0.00,,---,0.00,VWS V13.01,2013-01-07 22:38:00,
2013-01-07 17:44:00,29.7,-8.6,30.01,NW,319,0.0,0.0,18,0.00,,---,0.00,VWS V13.01,2013-01-07 22:44:00,
2013-01-07 17:49:00,29.5,-8.8,30.01,NW,319,0.0,0.0,18,0.00,,---,0.00,VWS V13.01,2013-01-07 22:49:00,
2013-01-07 17:54:00,29.1,-6.9,30.01,NW,319,0.0,0.0,20,0.00,,---,0.00,VWS V13.01,2013-01-07 22:54:00,
2013-01-07 17:59:00,29.1,-6.9,30.01,NW,319,0.0,0.0,20,0.00,,---,0.00,VWS V13.01,2013-01-07 22:59:00,
2013-01-07 18:04:00,28.8,-7.2,30.01,NW,319,0.0,0.0,20,0.00,,---,0.00,VWS V13.01,2013-01-07 23:04:00,
2013-01-07 18:09:00,28.4,-6.5,30.01,NW,319,0.0,0.0,21,0.00,,---,0.00,VWS V13.01,2013-01-07 23:09:00,
2013-01-07 18:14:00,28.0,-6.8,30.01,NW,319,0.0,0.0,21,0.00,,---,0.00,VWS V13.01,2013-01-07 23:14:00,
2013-01-07 18:19:00,27.9,-7.0,30.01,NW,319,0.0,0.0,21,0.00,,---,0.00,VWS V13.01,2013-01-07 23:19:00,
2013-01-07 18:25:00,27.9,-7.0,30.01,NW,319,0.0,0.0,21,0.00,,---,0.00,VWS V13.01,2013-01-07 23:25:00,
2013-01-07 18:30:00,27.9,-7.0,30.01,NW,319,0.0,0.0,21,0.00,,---,0.00,VWS V13.01,2013-01-07 23:30:00,
2013-01-07 18:35:00,27.9,-7.0,30.01,NW,319,0.0,0.0,21,0.00,,---,0.00,VWS V13.01,2013-01-07 23:35:00,
2013-01-07 18:40:00,27.9,-7.0,30.01,NW,319,0.0,0.0,21,0.00,,---,0.00,VWS V13.01,2013-01-07 23:40:00,
2013-01-07 18:45:00,27.7,-7.2,30.01,NW,319,0.0,0.0,21,0.00,,---,0.00,VWS V13.01,2013-01-07 23:45:00,
2013-01-07 18:50:00,27.5,-7.3,30.01,NW,319,0.0,0.0,21,0.00,,---,0.00,VWS V13.01,2013-01-07 23:50:00,
2013-01-07 18:55:00,27.1,-7.6,30.01,NW,319,0.0,0.0,21,0.00,,---,0.00,VWS V13.01,2013-01-07 23:55:00,
2013-01-07 19:00:00,27.0,-7.8,30.01,NW,319,0.0,0.0,21,0.00,,---,0.00,VWS V13.01,2013-01-08 00:00:00,
2013-01-07 19:06:00,26.6,-8.1,30.01,NW,319,0.0,0.0,21,0.00,,---,0.00,VWS V13.01,2013-01-08 00:06:00,
2013-01-07 19:11:00,26.6,-8.1,30.01,NW,319,0.0,0.0,21,0.00,,---,0.00,VWS V13.01,2013-01-08 00:11:00,
2013-01-07 19:16:00,26.4,-8.2,30.01,NW,319,0.0,0.0,21,0.00,,---,0.00,VWS V13.01,2013-01-08 00:16:00,
2013-01-07 19:21:00,26.4,-8.2,30.01,NW,319,0.0,0.0,21,0.00,,---,0.00,VWS V13.01,2013-01-08 00:21:00,
2013-01-07 19:26:00,26.2,-8.4,30.01,NW,319,0.0,0.0,21,0.00,,---,0.00,VWS V13.01,2013-01-08 00:26:00,
2013-01-07 19:31:00,26.1,-8.5,30.01,NW,319,0.0,0.0,21,0.00,,---,0.00,VWS V13.01,2013-01-08 00:31:00,
2013-01-07 19:36:00,26.1,-8.5,30.01,NW,319,0.0,0.0,21,0.00,,---,0.00,VWS V13.01,2013-01-08 00:36:00,
2013-01-07 19:41:00,26.1,-8.5,30.01,NW,319,0.0,0.0,21,0.00,,---,0.00,VWS V13.01,2013-01-08 00:41:00,
2013-01-07 19:47:00,25.9,-8.7,30.01,NW,319,0.0,0.0,21,0.00,,---,0.00,VWS V13.01,2013-01-08 00:47:00,
2013-01-07 19:52:00,25.7,-8.8,30.01,NW,319,0.0,0.0,21,0.00,,---,0.00,VWS V13.01,2013-01-08 00:52:00,
2013-01-07 19:57:00,25.5,-9.0,30.01,NW,319,0.0,0.0,21,0.00,,---,0.00,VWS V13.01,2013-01-08 00:57:00,
2013-01-07 20:02:00,25.3,-9.1,30.01,NW,319,0.0,0.0,21,0.00,,---,0.00,VWS V13.01,2013-01-08 01:02:00,
2013-01-07 20:07:00,25.3,-9.1,30.01,NW,319,0.0,0.0,21,0.00,,---,0.00,VWS V13.01,2013-01-08 01:07:00,
2013-01-07 20:12:00,25.2,-9.3,30.01,NW,319,0.0,0.0,21,0.00,,---,0.00,VWS V13.01,2013-01-08 01:12:00,
2013-01-07 20:18:00,25.0,-9.4,30.01,NW,319,0.0,0.0,21,0.00,,---,0.00,VWS V13.01,2013-01-08 01:18:00,
2013-01-07 20:23:00,25.0,-9.4,30.01,NW,319,0.0,0.0,21,0.00,,---,0.00,VWS V13.01,2013-01-08 01:23:00,
2013-01-07 20:28:00,25.0,-9.4,30.01,NW,319,0.0,0.0,21,0.00,,---,0.00,VWS V13.01,2013-01-08 01:28:00,
2013-01-07 20:33:00,24.8,-8.6,30.01,NW,319,0.0,0.0,22,0.00,,---,0.00,VWS V13.01,2013-01-08 01:33:00,
2013-01-07 20:38:00,24.8,-8.6,30.01,NW,319,0.0,0.0,22,0.00,,---,0.00,VWS V13.01,2013-01-08 01:38:00,
2013-01-07 20:43:00,24.6,-8.8,30.01,NW,319,0.0,0.0,22,0.00,,---,0.00,VWS V13.01,2013-01-08 01:43:00,
2013-01-07 20:48:00,24.6,-8.8,30.01,NW,319,0.0,0.0,22,0.00,,---,0.00,VWS V13.01,2013-01-08 01:48:00,
2013-01-07 20:53:00,24.4,-8.9,30.01,NW,319,0.0,0.0,22,0.00,,---,0.00,VWS V13.01,2013-01-08 01:53:00,
2013-01-07 20:58:00,24.3,-9.1,30.01,NW,319,0.0,0.0,22,0.00,,---,0.00,VWS V13.01,2013-01-08 01:58:00,
2013-01-07 21:03:00,24.1,-9.2,30.01,NW,319,0.0,0.0,22,0.00,,---,0.00,VWS V13.01,2013-01-08 02:03:00,
2013-01-07 21:09:00,24.1,-9.2,30.01,NW,319,0.0,0.0,22,0.00,,---,0.00,VWS V13.01,2013-01-08 02:09:00,
2013-01-07 21:14:00,24.1,-9.2,30.01,NW,319,0.0,0.0,22,0.00,,---,0.00,VWS V13.01,2013-01-08 02:14:00,
2013-01-07 21:19:00,24.1,-7.5,30.01,NW,319,0.0,0.0,24,0.00,,---,0.00,VWS V13.01,2013-01-08 02:19:00,
2013-01-07 21:24:00,23.9,-7.6,30.01,NW,319,0.0,0.0,24,0.00,,---,0.00,VWS V13.01,2013-01-08 02:24:00,
2013-01-07 21:29:00,23.9,-7.6,30.01,NW,319,0.0,0.0,24,0.00,,---,0.00,VWS V13.01,2013-01-08 02:29:00,
2013-01-07 21:34:00,23.9,-7.6,30.01,NW,319,0.0,0.0,24,0.00,,---,0.00,VWS V13.01,2013-01-08 02:34:00,
2013-01-07 21:40:00,23.7,-7.8,30.01,NW,319,0.0,0.0,24,0.00,,---,0.00,VWS V13.01,2013-01-08 02:40:00,
2013-01-07 21:45:00,23.5,-7.9,30.01,NW,319,0.0,0.0,24,0.00,,---,0.00,VWS V13.01,2013-01-08 02:45:00,
2013-01-07 21:50:00,23.5,-7.9,30.01,NW,319,0.0,0.0,24,0.00,,---,0.00,VWS V13.01,2013-01-08 02:50:00,
2013-01-07 21:55:00,23.5,-7.9,30.01,NW,319,0.0,0.0,24,0.00,,---,0.00,VWS V13.01,2013-01-08 02:55:00,
2013-01-07 22:00:00,23.5,-7.9,30.01,NW,319,0.0,0.0,24,0.00,,---,0.00,VWS V13.01,2013-01-08 03:00:00,
2013-01-07 22:05:00,23.5,-7.9,30.01,NW,319,0.0,0.0,24,0.00,,---,0.00,VWS V13.01,2013-01-08 03:05:00,
2013-01-07 22:10:00,23.5,-7.9,30.01,NW,319,0.0,0.0,24,0.00,,---,0.00,VWS V13.01,2013-01-08 03:10:00,
2013-01-07 22:15:00,23.5,-5.5,30.01,NW,319,0.0,0.0,27,0.00,,---,0.00,VWS V13.01,2013-01-08 03:15:00,
2013-01-07 22:21:00,23.4,-5.7,30.01,NW,319,0.0,0.0,27,0.00,,---,0.00,VWS V13.01,2013-01-08 03:21:00,
2013-01-07 22:26:00,23.2,-5.8,30.01,NW,319,0.0,0.0,27,0.00,,---,0.00,VWS V13.01,2013-01-08 03:26:00,
2013-01-07 22:31:00,23.2,-5.8,30.01,NW,319,0.0,0.0,27,0.00,,---,0.00,VWS V13.01,2013-01-08 03:31:00,
2013-01-07 22:36:00,23.0,-6.0,30.01,NW,319,0.0,0.0,27,0.00,,---,0.00,VWS V13.01,2013-01-08 03:36:00,
2013-01-07 22:41:00,23.0,-6.0,30.01,NW,319,0.0,0.0,27,0.00,,---,0.00,VWS V13.01,2013-01-08 03:41:00,
2013-01-07 22:46:00,22.8,-6.1,30.01,NW,319,0.0,0.0,27,0.00,,---,0.00,VWS V13.01,2013-01-08 03:46:00,
2013-01-07 22:51:00,22.8,-6.1,30.01,NW,319,0.0,0.0,27,0.00,,---,0.00,VWS V13.01,2013-01-08 03:51:00,
2013-01-07 22:56:00,22.8,-6.1,30.01,NW,319,0.0,0.0,27,0.00,,---,0.00,VWS V13.01,2013-01-08 03:56:00,
2013-01-07 23:02:00,22.8,-6.1,30.01,NW,319,0.0,0.0,27,0.00,,---,0.00,VWS V13.01,2013-01-08 04:02:00,
2013-01-07 23:07:00,22.8,-6.1,30.01,NW,319,0.0,0.0,27,0.00,,---,0.00,VWS V13.01,2013-01-08 04:07:00,
2013-01-07 23:12:00,22.6,-6.3,30.01,NW,319,0.0,0.0,27,0.00,,---,0.00,VWS V13.01,2013-01-08 04:12:00,
2013-01-07 23:17:00,22.5,-6.5,30.01,NW,319,0.0,0.0,27,0.00,,---,0.00,VWS V13.01,2013-01-08 04:17:00,
2013-01-07 23:22:00,22.5,-6.5,30.01,NW,319,0.0,0.0,27,0.00,,---,0.00,VWS V13.01,2013-01-08 04:22:00,
2013-01-07 23:27:00,22.3,-4.4,30.01,NW,319,0.0,0.0,30,0.00,,---,0.00,VWS V13.01,2013-01-08 04:27:00,
2013-01-07 23:32:00,22.3,-4.4,30.01,NW,319,0.0,0.0,30,0.00,,---,0.00,VWS V13.01,2013-01-08 04:32:00,
2013-01-07 23:37:00,22.1,-4.6,30.01,NW,319,0.0,0.0,30,0.00,,---,0.00,VWS V13.01,2013-01-08 04:37:00,
2013-01-07 23:42:00,22.1,-4.6,30.01,NW,319,0.0,0.0,30,0.00,,---,0.00,VWS V13.01,2013-01-08 04:42:00,
2013-01-07 23:48:00,22.1,-4.6,30.01,NW,319,0.0,0.0,30,0.00,,---,0.00,VWS V13.01,2013-01-08 04:48:00,
2013-01-07 23:53:00,22.1,-4.6,30.01,NW,319,0.0,0.0,30,0.00,,---,0.00,VWS V13.01,2013-01-08 04:53:00,
2013-01-07 23:58:00,21.9,-4.8,30.01,NW,319,0.0,0.0,30,0.00,,---,0.00,VWS V13.01,2013-01-08 04:58:00,